LiveATC.Net - Listen to live air traffic control over the Internet! Contact LiveATC.net for advertising information


ICAO: EPMO  IATA: WMI   Airport: Warsaw-Modlin Mazovia Airport
City: Warsaw
Country: Poland   Continent: Europe
EPMO METAR Weather: EPMO 310800Z 06005KT 030V090 CAVOK 26/17 Q1016
EPMO Flight Activity (FlightAware)
EPMO Tower
Feed Status: DOWN
Last heard on: 2015-08-31 05:49:02 (0 days 3 hours 0 minutes ago)
FacilityFrequency
Modlin Tower123.925

www.salt.aero

NOTICE

Unauthorized use prohibited. See LiveATC.net Terms of Service


Find LiveATC Audio Streams


Airport/ARTCC Code

Frequency
(e.g., 124.400, 128.75)
Site-wide search

Browse LiveATC Feeds
LiveATC Coverage Map
Top 50 LiveATC Feeds
Bad Weather Areas

LiveATC FAQ
Offer a LiveATC Feed
Contact LiveATC.net
Press Inquiries

LiveATC on iPhone
LiveATC on Android

LiveATC Mobile
(Mobile browser)

ATC Audio Archives
Interesting Recordings

LiveATC Forums


Home Page
About LiveATC.net
Make a Donation
LiveATC Bookstore

Terms of Use
Privacy Policy

ATC/Radar Sites
U.S. ARTCC Freqs
Canadian Air Freqs

AIRMETs/SIGMETs

FAA Airport Status
Nat'l Airspace Status
Arrival Demand Charts


Server Software By:
Icecast.org
Liquidsoap

Please make a donation to help us keep growing!